CARTOSAT-2D (41948 NORAD) Tracking and Keplerian Element Data

This shows tracking and keplerian element data for the satellite.

Feedback or suggestion? Click here.




ElementValue
Catalog41948
NameCARTOSAT-2D
Epoch Orbit44189
Epoch Day34.6994783
Epoch Year2025
RAAN96.0826
Inclination97.4811
Eccentricity0.0004005
Argument of Perigee180.7757
Mean Anonmoly179.3472
Mean Motion15.19240589
Decay Rate8.393E-05
L11 41948U 17008A 25034.69947830 .00008393 00000+0 40135-3 0 9990
L22 41948 97.4811 96.0826 0004005 180.7757 179.3472 15.19240589441896



Live tracking and technical data element details for CARTOSAT-2D (NORAD 41948). CARTOSAT-2D can be tracked NOW for your location showing map with azimuth and elevation plus other details from your city location.







IsCatalogInMostPopularTable: catalog: 41948, numindb: 600
Update: records affected: 1



GetName: 41948 CARTOSAT-2D

Hit Count: updated at: Thu, 15 May 2025 19:18:11 GMT